Flag for U.S.A. Weather past 2 weeks in New Orleans, Louisiana, U.S.A.

Now
78 °F

Sunny.


Feels Like: 80 °F
Forecast: 67 / 82 °F
Wind: 17 mph from Southwest

Location: Lakefront Airport

Current Time: Mar 31, 2015 at 7:38:29 PM

Latest Report: Mar 31, 2015 at 6:53 PM


Visibility: 10 mi

Pressure: 29.99 "Hg

Humidity: 54%

Dew point: 60 °F

Location of New OrleansLocation

Historic Weather in New Orleans — Graph

°F

New Orleans temperature yesterday

Maximum temperature yesterday: 82 °F (at 4:53 PM)
Minimum temperature yesterday: 66 °F (at 12:53 AM)
Average temperature yesterday: 73 °F

Past Weeks' High & Low Weather Summary

 TemperatureHumidityPressure
High83 °F (Mar 21, 1:53 PM)94% (Mar 25, 7:53 AM)30.29 "Hg (Mar 25, 7:53 AM)
Low53 °F (Mar 28, 6:53 AM)31% (Mar 27, 12:53 PM)29.78 "Hg (Mar 26, 4:53 PM)
Average70 °F71%30.05 "Hg
* Reported Mar 16 5:53 PM — Mar 31 5:53 PM, New Orleans, Weather by CustomWeather, © 2015

Note: Actual official high and low records may vary slightly from our data, if they occured in-between our weather recording intervals... More about our weather records

Advertising

New Orleans weather history for previous 24 hours

 ConditionsComfort  
Time TempWeatherWind HumidityBarometerVisibility
5:53 PM
Tue, Mar 31
79 °FScattered clouds.15 mph56%29.99 "Hg10 mi
4:53 PM79 °FPartly sunny.15 mph56%29.99 "Hg10 mi
3:53 PM80 °FLight rain. Partly sunny.9 mph56%30.01 "Hg10 mi
2:53 PM79 °FLight rain. Mostly cloudy.9 mph58%30.04 "Hg10 mi
1:53 PM79 °FPartly sunny.12 mph58%30.06 "Hg10 mi
12:53 PM78 °FMostly cloudy.5 mph62%30.10 "Hg10 mi
11:53 AM78 °FScattered clouds.7 mph64%30.12 "Hg10 mi
10:53 AM75 °FPartly sunny.8 mph71%30.14 "Hg10 mi
9:53 AM74 °FScattered clouds.8 mph71%30.13 "Hg10 mi
8:53 AM72 °FPassing clouds.6 mph78%30.12 "Hg9 mi
7:53 AM69 °FSunny.5 mph84%30.11 "Hg6 mi
6:53 AM65 °FClear.6 mph87%30.09 "Hg8 mi
5:53 AM67 °FClear.5 mph87%30.08 "Hg9 mi
4:53 AM68 °FClear.6 mph84%30.08 "Hg10 mi
3:53 AM68 °FClear.6 mph84%30.09 "Hg10 mi
2:53 AM69 °FClear.6 mph81%30.10 "Hg10 mi
1:53 AM69 °FClear.6 mph81%30.12 "Hg10 mi
12:53 AM70 °FClear.7 mph79%30.13 "Hg10 mi
11:53 PM
Mon, Mar 30
71 °FClear.8 mph76%30.14 "Hg10 mi
10:53 PM73 °FClear.10 mph71%30.15 "Hg10 mi
9:53 PM74 °FClear.13 mph69%30.14 "Hg10 mi
8:53 PM75 °FClear.13 mph62%30.13 "Hg10 mi
7:53 PM77 °FSunny.12 mph58%30.11 "Hg10 mi
Weather by CustomWeather, © 2015

See weather overviewHow to use our weather pages